When you browse on this site, cookies collect data to enhance your experience and personalize the content and advertising you see.
Visit our Privacy Policy to learn more. By continuing to use the site, you agree to this use of cookies and data.
  • In Latvia
  • List of Countries
  • For 7 days
  • Water Temperature
  • Satellite Maps
  • Weather Map
  • Weather Widgets
  • user-avatar
    Login

    Hourly Weather Batina

    Today, 22 July, Monday

    Time Temperature Precipitation Wind Pressure Humidity
    00:00 +24°C° 0 mm 2 mps 675 mmHg 52%
    01:00 +24°C° 0 mm 1 mps 674 mmHg 55%
    02:00 +23°C° 0 mm 1 mps 674 mmHg 59%
    03:00 +22°C° 0 mm 1 mps 673 mmHg 62%
    04:00 +23°C° 0 mm 1 mps 674 mmHg 58%
    05:00 +22°C° 0 mm 0 mps 675 mmHg 55%
    06:00 +23°C° 0 mm 0 mps 675 mmHg 52%
    07:00 +26°C° 0 mm 1 mps 676 mmHg 43%
    08:00 +28°C° 0 mm 2 mps 676 mmHg 35%
    09:00 +30°C° 0 mm 2 mps 677 mmHg 27%
    10:00 +31°C° 0 mm 3 mps 677 mmHg 24%
    11:00 +33°C° 0 mm 3 mps 677 mmHg 22%
    12:00 +34°C° 0 mm 3 mps 677 mmHg 19%
    13:00 +34°C° 0 mm 3 mps 677 mmHg 19%
    14:00 +34°C° 0 mm 3 mps 677 mmHg 19%
    15:00 +35°C° 0 mm 4 mps 676 mmHg 18%
    16:00 +34°C° 0 mm 4 mps 676 mmHg 20%
    17:00 +34°C° 0 mm 5 mps 676 mmHg 21%
    18:00 +33°C° 0 mm 5 mps 675 mmHg 23%
    19:00 +30°C° 0 mm 4 mps 675 mmHg 29%
    20:00 +28°C° 0 mm 3 mps 675 mmHg 34%
    21:00 +27°C° 0 mm 1 mps 675 mmHg 40%
    22:00 +26°C° 0 mm 1 mps 675 mmHg 42%
    23:00 +25°C° 0 mm 1 mps 674 mmHg 45%

    Tomorrow, 23 July, Tuesday

    Time Temperature Precipitation Wind Pressure Humidity
    00:00 +22°C° 0 mm 0 mps 674 mmHg 47%
    01:00 +22°C° 0 mm 0 mps 674 mmHg 49%
    02:00 +21°C° 0 mm 0 mps 673 mmHg 51%
    03:00 +20°C° 0 mm 0 mps 673 mmHg 53%
    04:00 +21°C° 0 mm 0 mps 673 mmHg 50%
    05:00 +24°C° 0 mm 1 mps 674 mmHg 47%
    06:00 +25°C° 0 mm 1 mps 674 mmHg 43%
    07:00 +27°C° 0 mm 1 mps 675 mmHg 39%
    08:00 +28°C° 0 mm 2 mps 675 mmHg 36%
    09:00 +29°C° 0 mm 2 mps 675 mmHg 32%
    10:00 +30°C° 0 mm 2 mps 675 mmHg 28%
    11:00 +31°C° 0 mm 3 mps 675 mmHg 25%
    12:00 +33°C° 0 mm 3 mps 675 mmHg 22%
    13:00 +34°C° 0 mm 3 mps 675 mmHg 21%
    14:00 +34°C° 0 mm 4 mps 675 mmHg 20%
    15:00 +34°C° 0 mm 4 mps 674 mmHg 19%
    16:00 +34°C° 0 mm 3 mps 674 mmHg 19%
    17:00 +33°C° 0 mm 3 mps 674 mmHg 19%
    18:00 +32°C° 0 mm 2 mps 673 mmHg 20%
    19:00 +30°C° 0 mm 2 mps 673 mmHg 24%
    20:00 +28°C° 0 mm 2 mps 673 mmHg 28%
    21:00 +27°C° 0 mm 1 mps 673 mmHg 32%
    22:00 +26°C° 0 mm 1 mps 673 mmHg 33%
    23:00 +25°C° 0 mm 1 mps 672 mmHg 35%

    Day after tomorrow, 24 July, Wednesday

    Time Temperature Precipitation Wind Pressure Humidity
    00:00 +25°C° 0 mm 1 mps 672 mmHg 37%
    01:00 +24°C° 0 mm 1 mps 672 mmHg 38%
    02:00 +24°C° 0 mm 2 mps 672 mmHg 39%
    03:00 +24°C° 0 mm 2 mps 671 mmHg 40%
    04:00 +24°C° 0 mm 2 mps 672 mmHg 38%
    05:00 +25°C° 0 mm 2 mps 672 mmHg 35%
    06:00 +26°C° 0 mm 3 mps 672 mmHg 33%
    07:00 +27°C° 0 mm 3 mps 673 mmHg 29%
    08:00 +29°C° 0 mm 3 mps 674 mmHg 25%
    09:00 +31°C° 0 mm 3 mps 674 mmHg 21%
    10:00 +33°C° 0 mm 3 mps 674 mmHg 20%
    11:00 +34°C° 0 mm 4 mps 674 mmHg 19%
    12:00 +35°C° 0 mm 4 mps 674 mmHg 18%
    13:00 +35°C° 0 mm 4 mps 674 mmHg 17%
    14:00 +35°C° 0 mm 5 mps 673 mmHg 17%
    15:00 +36°C° 0 mm 5 mps 673 mmHg 16%
    16:00 +35°C° 0 mm 5 mps 673 mmHg 17%
    17:00 +34°C° 0 mm 5 mps 673 mmHg 19%
    18:00 +33°C° 0 mm 4 mps 672 mmHg 20%
    19:00 +31°C° 0 mm 3 mps 672 mmHg 23%
    20:00 +29°C° 0 mm 2 mps 672 mmHg 26%
    21:00 +28°C° 0 mm 1 mps 672 mmHg 30%
    22:00 +27°C° 0 mm 1 mps 672 mmHg 30%
    23:00 +27°C° 0 mm 2 mps 672 mmHg 31%

    25 July, Thursday

    Time Temperature Precipitation Wind Pressure Humidity
    00:00 +26°C° 0 mm 2 mps 671 mmHg 32%
    01:00 +25°C° 0 mm 2 mps 671 mmHg 32%
    02:00 +25°C° 0 mm 1 mps 671 mmHg 33%
    03:00 +24°C° 0 mm 1 mps 671 mmHg 34%
    04:00 +25°C° 0 mm 1 mps 671 mmHg 32%
    05:00 +26°C° 0 mm 2 mps 672 mmHg 30%
    06:00 +27°C° 0 mm 2 mps 672 mmHg 29%
    07:00 +29°C° 0 mm 3 mps 673 mmHg 26%
    08:00 +32°C° 0 mm 4 mps 673 mmHg 23%
    09:00 +33°C° 0 mm 5 mps 674 mmHg 20%
    10:00 +34°C° 0 mm 5 mps 674 mmHg 19%
    11:00 +35°C° 0 mm 5 mps 674 mmHg 17%
    12:00 +36°C° 0 mm 6 mps 673 mmHg 16%
    13:00 +36°C° 0 mm 6 mps 673 mmHg 16%
    14:00 +36°C° 0 mm 5 mps 673 mmHg 15%
    15:00 +36°C° 0 mm 5 mps 672 mmHg 15%
    16:00 +36°C° 0 mm 5 mps 672 mmHg 16%
    17:00 +35°C° 0 mm 4 mps 672 mmHg 16%
    18:00 +35°C° 0 mm 4 mps 672 mmHg 17%
    19:00 +33°C° 0 mm 3 mps 672 mmHg 21%
    20:00 +30°C° 0 mm 2 mps 671 mmHg 24%
    21:00 +28°C° 0 mm 1 mps 671 mmHg 28%
    22:00 +27°C° 0 mm 1 mps 671 mmHg 29%
    23:00 +27°C° 0 mm 1 mps 671 mmHg 30%

    26 July, Friday

    Time Temperature Precipitation Wind Pressure Humidity
    00:00 +26°C° 0 mm 1 mps 671 mmHg 31%
    01:00 +26°C° 0 mm 1 mps 670 mmHg 31%
    02:00 +26°C° 0 mm 1 mps 670 mmHg 30%
    03:00 +25°C° 0 mm 2 mps 670 mmHg 30%
    04:00 +26°C° 0 mm 2 mps 670 mmHg 28%
    05:00 +28°C° 0 mm 2 mps 671 mmHg 26%
    06:00 +29°C° 0 mm 2 mps 671 mmHg 24%
    07:00 +30°C° 0 mm 3 mps 672 mmHg 21%
    08:00 +33°C° 0 mm 4 mps 672 mmHg 18%
    09:00 +35°C° 0 mm 5 mps 673 mmHg 16%
    10:00 +36°C° 0 mm 5 mps 672 mmHg 15%
    11:00 +36°C° 0 mm 5 mps 672 mmHg 14%
    12:00 +37°C° 0 mm 5 mps 672 mmHg 13%
    13:00 +37°C° 0 mm 5 mps 672 mmHg 13%
    14:00 +37°C° 0 mm 5 mps 672 mmHg 12%
    15:00 +37°C° 0 mm 5 mps 672 mmHg 12%
    16:00 +37°C° 0 mm 5 mps 671 mmHg 12%
    17:00 +36°C° 0 mm 6 mps 671 mmHg 13%
    18:00 +35°C° 0 mm 6 mps 671 mmHg 14%
    19:00 +33°C° 0 mm 5 mps 671 mmHg 18%
    20:00 +30°C° 0 mm 3 mps 671 mmHg 22%
    21:00 +28°C° 0 mm 2 mps 670 mmHg 26%
    22:00 +27°C° 0 mm 2 mps 670 mmHg 27%
    23:00 +27°C° 0 mm 1 mps 670 mmHg 28%

    27 July, Saturday

    Time Temperature Precipitation Wind Pressure Humidity
    00:00 +26°C° 0 mm 1 mps 669 mmHg 29%
    01:00 +26°C° 0.1 mm 1 mps 669 mmHg 30%
    02:00 +25°C° 0.1 mm 1 mps 669 mmHg 30%
    03:00 +23°C° 0.1 mm 0 mps 669 mmHg 30%
    04:00 +26°C° 0 mm 1 mps 669 mmHg 28%
    05:00 +27°C° 0 mm 1 mps 670 mmHg 26%
    06:00 +29°C° 0 mm 1 mps 670 mmHg 24%
    07:00 +30°C° 0 mm 2 mps 671 mmHg 23%
    08:00 +31°C° 0 mm 3 mps 671 mmHg 21%
    09:00 +33°C° 0 mm 4 mps 672 mmHg 20%
    10:00 +34°C° 0 mm 4 mps 671 mmHg 18%
    11:00 +35°C° 0 mm 4 mps 671 mmHg 17%
    12:00 +36°C° 0 mm 4 mps 671 mmHg 16%
    13:00 +36°C° 0 mm 4 mps 671 mmHg 15%
    14:00 +36°C° 0 mm 5 mps 671 mmHg 15%
    15:00 +36°C° 0 mm 5 mps 671 mmHg 15%
    16:00 +35°C° 0 mm 6 mps 670 mmHg 19%
    17:00 +33°C° 0 mm 7 mps 670 mmHg 24%
    18:00 +31°C° 0 mm 8 mps 670 mmHg 29%
    19:00 +29°C° 0 mm 7 mps 670 mmHg 33%
    20:00 +27°C° 0 mm 5 mps 670 mmHg 37%
    21:00 +25°C° 0 mm 3 mps 670 mmHg 41%
    22:00 +25°C° 0 mm 3 mps 670 mmHg 44%
    23:00 +24°C° 0 mm 3 mps 670 mmHg 47%
    Show more